Regional Weather Roundup
Issued by NWS Upton, NY

Current Version | Previous Version | Text Only | Print | Product List | Glossary Off
Versions: 1 2 3 4 5 6 7 8 9 10 11 12 13 14 15 16 17 18 19 20 21 22 23 24 25 26 27 28 29 30 31 32 33 34 35 36 37 38 39 40 41 42 43 44 45 46 47 48 49 50
000 ASUS41 KOKX 010905 RWROKX REGIONAL WEATHER ROUNDUP NATIONAL WEATHER SERVICE NEW YORK NY 500 AM EDT WED OCT 01 2014 NOTE: "FAIR" INDICATES FEW OR NO CLOUDS BELOW 12,000 FEET WITH NO SIGNIFICANT WEATHER AND/OR OBSTRUCTIONS TO VISIBILITY. NYZ071-072-176-178-NJZ106-104-011000- NEW YORK CITY METRO AREA CITY SKY/WX TMP DP RH WIND PRES REMARKS CENTRAL PARK CLOUDY 63 55 75 VRB7 30.02R LAGUARDIA APRT CLOUDY 62 57 83 N8 29.98S KENNEDY INTL CLOUDY 62 58 86 N10 29.99S NEWARK/LIBERTY CLOUDY 62 57 83 N13 29.99S BRNX BOT. GARD N/A 61 55 82 NW5 30.00R TETERBORO CLOUDY 62 55 77 N7 29.98S $$ NYZ177-179-078>081-011000- LONG ISLAND NEW YORK CITY SKY/WX TMP DP RH WIND PRES REMARKS FARMINGDALE CLOUDY 61 58 90 N9 29.98S FOG ISLIP CLOUDY 60 58 92 NE9 29.96S SHIRLEY LGT RAIN 60 58 92 VRB7 29.98S FOG WESTHAMPTON LGT RAIN 59 57 94 N10 29.99S FOG MONTAUK POINT N/A 60 57 89 NE9 29.99S $$ NYZ052-065-067-011000- HUDSON VALLEY CITY SKY/WX TMP DP RH WIND PRES REMARKS WHITE PLAINS CLOUDY 59 56 89 N7 29.99S NEWBURGH CLOUDY 59 57 94 CALM 30.02S MONTGOMERY CLOUDY 58 55 90 N3 30.01S POUGHKEEPSIE CLOUDY 59 55 87 N3 30.01R ALBANY CLOUDY 61 56 83 CALM 30.03S $$ NJZ001-105-106-008-010-013-015-019>022-104-011000- NEW JERSEY CITY SKY/WX TMP DP RH WIND PRES REMARKS NEWARK/LIBERTY CLOUDY 62 57 83 N13 29.99S TETERBORO CLOUDY 62 55 77 N7 29.98S CALDWELL CLOUDY 60 54 80 NE5 30.00S MORRISTOWN CLOUDY 61 57 88 CALM 30.00S SOMERVILLE CLOUDY 61 57 87 CALM 29.98S LINDEN CLOUDY 67 60 79 NE6 30.00S SUSSEX CLOUDY 61 56 83 N3 30.01S ANDOVER N/A 58 56 93 NE7 30.01S TRENTON CLOUDY 61 57 87 NE8 29.98R MILLVILLE CLOUDY 62 60 93 NE9 29.96R ATLANTIC CITY LGT RAIN 62 62 100 N10 29.95R WRIGHTSTOWN CLOUDY 61 61 100 NE5 29.95S TOMS RIVER CLOUDY 61 59 94 N5 29.98R BELMAR CLOUDY 61 55 82 N6 29.98S $$ PAZ047>061-062-071-011000- EASTERN PENNSYLVANIA CITY SKY/WX TMP DP RH WIND PRES REMARKS PHILADELPHIA MOCLDY 64 58 80 NE9 29.97F ALLENTOWN MOCLDY 60 57 89 NE3 29.99S SCRANTON MOCLDY 60 56 86 CALM 29.99F $$ CTZ002-004>006-009-010-012-RIZ004-006-007-MAZ004-011-015-011000- SOUTHERN NEW ENGLAND IN CT CITY SKY/WX TMP DP RH WIND PRES REMARKS BRADLEY INTL LGT RAIN 59 56 89 N7 30.01S HARTFORD LGT RAIN 58 56 93 VRB7 30.01S DANBURY LGT RAIN 58 56 93 NE5 30.02S FOG WTRBRY/OXFORD CLOUDY 57 52 82 NE9 30.02S BRIDGEPORT LGT RAIN 60 58 92 N8 29.98F FOG MERIDEN LGT RAIN 58 56 93 N6 30.00S NEW HAVEN RAIN 61 57 87 N13 29.99S FOG CHESTER LGT RAIN 57 55 94 N6 30.00R GROTON CLOUDY 57 56 96 N10 29.97S WILLIMANTIC LGT RAIN 58 55 90 NE7 30.01R IN RI CITY SKY/WX TMP DP RH WIND PRES REMARKS PROVIDENCE LGT RAIN 58 56 93 N9 30.00S BLOCK ISLAND CLOUDY 59 55 88 NE14G21 29.98R WESTERLY CLOUDY 58 56 93 N5 29.99S IN MA CITY SKY/WX TMP DP RH WIND PRES REMARKS BOSTON CLOUDY 57 55 93 N14 30.02S WORCESTER CLOUDY 54 53 97 NE9 30.03S FOG WESTFIELD CLOUDY 59 56 89 N6 30.02S PROVINCETOWN CLOUDY 61 57 88 NE10G16 29.99R NANTUCKET CLOUDY 63 61 93 NE14 29.94S $$ ANZ330-335-338-340-345-350-353-355-011000- COASTAL MARINE OBSERVATIONS STATION/POSITION TIME SKY/WX TEMP WIND PRES VSBY WAVE AIR SEA DIR/SP/G HT/PER (UTC) (F) (DEG/KT/KT) (MB) (MI) (FT/S) NY HARB ENTRANCE NOT AVBL 4S FIRE IS 0900 68 N/A 3/ 5 20S FIRE ISLAND 0900 62 67 30/ 16/ 17 1014.1 4/ 6 23SW MTP 0900 N/A 4/ 5 HUDSON CANYON 0900 66 69 30/ 19/ 23 1012.2 5/ 6 EXECUTION ROCKS 0900 62 68 360/ 8/ 12 N/A WESTERN LI SOUND 0900 62 20/ 10/ 12 N/A 1/ 3 CENTRAL LI SOUND 0800 59 68 30/ 12/ 14 N/A 1/ 2 EASTERN LI SOUND 0800 60 67 40/ 12/ 16 N/A ROBBINS REEF 0900 62 360/ 10/ 11 1014.2 $$ >>>>>>>>>>>>>>>>>>>>>>>>>>>> KEY <<<<<<<<<<<<<<<<<<<<<<<<<<< > < > SKY/WX - SKY CONDITION/PRESENT WEATHER < > TMP - TEMPERATURE IN FAHRENHEIT < > DP - DEWPOINT IN FAHRENHEIT < > RH - RELATIVE HUMIDITY IN PERCENT < > WIND - DIRECTION AND SPEED IN MPH < > PRES - MEAN SEA LEVEL PRESSURE IN INCHES OF HG < > WCI - WIND CHILL INDEX < > VSB - VISIBILITY IN MILES < > HX - HEAT INDEX < > TC - TEMPERATURE IN CELSIUS < > VRB - VARIABLE WIND DIRECTION < > < >>>>>>>>>>>>>>>>>>>>>>>>>>>> KEY <<<<<<<<<<<<<<<<<<<<<<<<<<<

USA.gov is the U.S. government's official web portal to all federal, state and local government web resources and services.